Location: Kampung Segan
(3.1399°N, 113.1002°E)
Time: 13:18:18
(UTC+00:00)

Ariane H10+ - Pass Details

Date: 05 August 2024
Orbit: 231 x 4896 km, 6.7° (Epoch: 08 September)

Event Time Altitude Azimuth Distance (km) Brightness Sun altitude
Exits shadow 19:36:49 45° 135° (SE) 2,009 4.0 -40.6°
Drops below altitude 10° 19:48:52 10° 95° (E) 5,648 7.0 -37.9°
Sets 19:55:38 0° 91° (E) 7,553 7.9 -36.3°
